Regional Weather Roundup
Issued by NWS

Home | Current Version | Previous Version | Graphics & Text | Print | Product List | Glossary On
Versions: 1 2 3 4 5 6 7 8 9 10 11 12 13 14 15 16 17 18 19 20 21 22 23 24 25 26 27 28 29 30 31 32 33 34 35 36 37 38 39 40 41 42 43 44 45 46 47 48 49 50
000
ASUS43 KFSD 230210
RWRSD

WEATHER ROUNDUP FOR SOUTH DAKOTA
NATIONAL WEATHER SERVICE SIOUX FALLS SD
800 PM CST WED NOV 22 2017

NOTE: "FAIR" INDICATES FEW OR NO CLOUDS BELOW 12,000 FEET WITH NO
SIGNIFICANT WEATHER AND/OR OBSTRUCTIONS TO VISIBILITY.


SDZ001>005-009-010-012>017-230300-
NORTHWEST AND NORTH CENTRAL SOUTH DAKOTA

CITY           SKY/WX    TMP DP  RH WIND       PRES   REMARKS
BUFFALO          N/A     50  39  66 NW12      29.96R
FAITH            N/A     50  38  63 NW10      29.99R
MOBRIDGE       CLEAR     45  35  68 NW10      29.91R
$$

SDZ012>016-024>037-041>051-057-063-072>074-230300-
SOUTHWEST AND SOUTH CENTRAL SOUTH DAKOTA

CITY           SKY/WX    TMP DP  RH WIND       PRES   REMARKS
RAPID CTY ARPT CLEAR     48  36  63 NW5       30.05R
PIERRE         CLOUDY    52  38  58 W6        29.95R
CUSTER         CLEAR     49  34  56 W6        30.16R
ELLSWORTH AFB  CLEAR     51  37  59 CALM      30.05R
PHILIP         PTCLDY    47  38  71 W8        30.01R
PINE RIDGE     CLEAR     49  35  58 CALM      30.08R
SPEARFISH      FAIR      59  39  47 W14       30.08R
WINNER         FAIR      54  38  54 W10       29.99R
$$

SDZ004>011-016>023-039-040-230300-
NORTHEAST SOUTH DAKOTA

CITY           SKY/WX    TMP DP  RH WIND       PRES   REMARKS
ABERDEEN       CLOUDY    26  20  77 W3        29.93R
WATERTOWN      CLOUDY    29  20  69 S6        29.90S WCI  23
BROOKINGS      CLOUDY    32  20  61 S5        29.92F WCI  27
SISSETON         N/A     37  24  59 W12       29.89R
$$

SDZ017-020-022-023-036>040-048>070-230300-
SOUTHEAST SOUTH DAKOTA

CITY           SKY/WX    TMP DP  RH WIND       PRES   REMARKS
SIOUX FALLS    CLEAR     39  22  50 SW6       29.94F
HURON          CLEAR     35  23  61 S3        29.91S
CHAMBERLAIN    CLOUDY    50  37  60 W7        29.95S
MITCHELL       CLEAR     33  24  69 S5        29.93S WCI  29
YANKTON        CLEAR     36  22  56 S3        29.96S
$$

ABBREVIATIONS USED IN REMARKS
   TC - TEMPERATURE IN CELSIUS
  WCI - WIND CHILL INDEX
   HX - HEAT INDEX
  VSB - VISIBILITY




USA.gov is the U.S. government's official web portal to all federal, state and local government web resources and services.